Lid_Strength_Index
12 15 16 15 13 13 12 14 14 12 11 12 12 12 11 9 9 9 10 9 9 9 8 7 7 7 7 7 7 7 7 8 8 10 11 11 10 9 8 7 6 5 5 5
11 15 12 10 11 13 13 14 14 12 12 12 13 14 12 11 10 10 9 10 10 9 9 9 8 7 7 7 7 7 7 8 9 10 11 11 10 9 9 9 6 6 5 5
11 11 9 10 12 14 14 14 14 13 11 12 14 15 13 11 10 10 10 9 9 9 9 8 7 7 7 7 7 7 8 8 9 9 10 9 9 7 8 8 7 7 6 6
10 10 10 9 12 12 15 12 13 13 14 16 12 18 13 11 11 10 9 9 9 9 8 9 8 8 7 7 6 7 7 8 8 9 10 11 11 10 9 9 8 8 6 6
11 11 12 12 11 10 13 12 13 13 15 14 14 17 16 12 13 12 10 9 8 8 8 8 8 8 7 7 6 7 7 7 8 9 9 9 10 9 9 9 9 8 7 5
10 8 11 11 9 10 10 12 14 15 15 18 17 15 17 13 11 10 9 9 9 8 8 8 8 8 8 7 6 6 7 7 7 8 8 8 8 8 8 9 10 9 7 7
11 10 10 12 13 12 11 15 17 19 20 20 15 15 15 12 11 10 10 10 9 9 8 8 8 8 9 8 6 6 7 7 7 8 8 8 8 8 9 9 9 9 8 7
16 16 10 10 12 13 13 14 17 21 19 17 14 18 15 11 10 9 10 10 9 9 9 9 9 9 9 9 8 7 7 7 7 8 8 7 8 8 8 8 8 9 9 8
18 16 10 12 11 11 13 16 12 16 16 18 16 15 13 12 12 11 11 10 11 11 11 11 10 10 10 9 9 8 7 7 7 8 8 7 7 8 9 8 7 7 8 8
15 18 12 12 12 12 12 11 16 16 20 21 17 16 14 12 12 13 13 12 12 12 12 12 12 11 10 10 9 8 7 7 7 7 7 7 7 7 8 8 8 8 8 8
13 16 15 13 14 14 14 15 13 13 15 17 18 15 13 14 13 14 14 13 12 12 12 12 12 12 11 11 10 9 8 8 7 7 8 7 7 7 7 8 7 7 7 8
13 16 18 17 12 12 13 14 13 16 17 15 15 14 12 13 13 13 14 13 13 13 13 13 13 13 13 13 12 11 10 9 8 8 8 8 8 7 7 8 7 7 8 8
13 16 21 18 13 14 16 15 14 14 14 16 17 16 11 12 13 13 13 13 13 13 13 14 14 14 14 14 13 13 12 11 10 8 8 8 8 8 8 8 8 8 8 8
10 15 18 21 19 17 19 16 15 15 18 16 15 14 12 13 13 14 14 13 14 14 14 15 15 15 15 15 14 14 14 13 11 10 9 8 8 8 8 8 8 8 8 9
11 18 16 15 16 16 16 16 16 17 14 16 15 13 11 10 13 14 14 14 15 16 16 16 17 17 17 16 15 15 15 14 13 12 11 10 9 8 8 8 8 8 8 9
9 17 16 19 15 14 16 15 15 14 14 13 13 14 12 12 13 14 15 16 17 18 18 18 17 18 19 18 17 16 16 16 14 14 14 13 12 10 9 9 9 9 9 9
11 13 17 20 15 15 19 15 15 15 16 16 16 15 13 14 16 16 16 17 17 18 18 18 18 19 19 19 18 18 17 17 16 16 16 16 15 14 13 12 10 10 10 10
12 13 14 17 18 21 14 13 14 15 16 15 15 15 14 15 16 16 16 17 18 18 19 19 19 19 20 20 19 18 19 19 19 19 18 18 17 16 15 14 13 12 11 13
8 11 15 18 18 15 13 14 14 15 17 15 16 15 15 15 15 17 15 16 17 18 18 19 18 19 20 21 20 19 20 21 21 22 20 19 18 17 16 15 15 14 14 14
9 9 13 15 20 21 14 12 10 11 17 13 14 15 15 14 17 18 16 16 17 17 17 18 18 18 20 21 20 21 22 22 23 23 22 20 19 18 16 15 15 14 14 14
13 13 15 15 17 15 11 10 9 17 16 12 13 14 15 16 16 16 15 16 16 17 18 18 18 19 20 20 20 21 22 24 23 23 22 21 20 19 17 16 14 14 14 14
14 15 15 14 17 19 8 10 14 12 10 10 12 13 14 14 14 15 15 16 17 18 18 18 19 19 20 21 21 21 23 23 23 24 23 22 21 19 18 17 16 14 13 13
15 11 13 13 13 8 7 8 7 9 10 11 12 13 14 15 15 16 16 16 17 18 18 18 20 20 20 21 22 23 23 24 24 24 24 23 21 20 20 18 16 16 14 14
11 8 11 11 9 8 7 7 9 9 11 12 13 14 14 15 15 16 16 17 17 17 18 19 20 20 20 20 22 23 23 24 25 25 24 23 22 22 20 19 17 17 16 15
11 10 11 11 9 7 7 8 8 9 11 12 13 14 15 16 16 16 17 17 18 18 19 20 20 20 21 20 21 22 24 25 25 25 24 23 23 22 22 20 19 18 17 15
11 12 13 14 8 8 8 8 9 10 10 12 13 14 14 15 17 16 17 17 18 19 19 20 21 21 21 21 22 22 23 24 26 25 24 23 23 23 22 21 20 18 17 16